Current weather by "City, St" or "zip code"  
 

Current Conditions: Hanchey AHP / Ozark, AL

A Few Clouds


72.0 F

Last Updated on Oct 23 2020, 8:58 pm CDT
Humidity: 95%
Wind Speed: N 0.0 mph
Barometer 30.00 in
Dewpoint: 70.2 F
Visibility: 10.00 mi
Precip: 00.01 in
Heat Index: NA
Wind Chill: NA
Current conditions at:

Hanchey AHP / Ozark, AL (KHEY)

Lat: 31.35 Lon: 85.66667

Local Radar Image active severe weather and emergency alerts image image weather storm and storm spotter reports image weather observation monitoring service image
Local
Radar
Active
Alerts
Storm Reports Obs
Monitoring

Sign-up For Email & Text Message Weather Alert Notification Services



Advertise Here

Observation History for Hanchey AHP / Ozark, AL


Time Wind
(mph)
Vis
(mi)
Weather Precip (in) Temperature (F) Relative
Humidity
Wind
Chill
(F)
Heat
Index
(F)
Pressure
Air Dwpt altimeter
(in)
sea level
(mb)
Rmks
8:58 pm CDT N 0.0 10.00 A Few Clouds 00.01 72.0 70.2 95% NA NA 30.00 1015.9
7:58 pm CDT N 0.0 10.00 Light Rain 00.01 71.0 69.4 95% NA NA 30.01 1016.2
6:58 pm CDT S 8.1 10.00 Mostly Cloudy -- 76.0 69.1 78% NA NA 30.00 1015.9
5:58 pm CDT E 6.9 9.00 A Few Clouds -- 80.0 69.3 70% NA 83 29.97 1014.8
4:58 pm CDT E 5.8 6.00 A Few Clouds with Haze -- 82.0 68.7 64% NA 85 29.96 1014.5
3:58 pm CDT E 9.2 9.00 Fair -- 85.0 68.5 58% NA 89 29.96 1014.5
2:58 pm CDT E 4.6 10.00 A Few Clouds -- 85.0 67.5 55% NA 88 29.97 1014.8
1:58 pm CDT S 4.6 10.00 Partly Cloudy -- 84.0 67.6 58% NA 87 30.00 1015.8
12:58 pm CDT SE 6.9 10.00 Overcast -- 82.0 68.9 64% NA 85 30.02 1016.5
11:58 am CDT SE 5.8 10.00 Mostly Cloudy -- 82.0 69.8 66% NA 86 30.05 1017.5
10:58 am CDT E 5.8 10.00 Overcast -- 80.0 70.0 71% NA 83 30.07 1018.2
9:58 am CDT SE 6.9 10.00 Fair -- 77.0 69.4 79% NA NA 30.07 1018.2
8:58 am CDT E 8.1 10.00 Partly Cloudy -- 72.0 67.6 87% NA NA 30.07 1018.3
7:58 am CDT E 6.9 9.00 Mostly Cloudy -- 68.0 66.6 94% NA NA 30.06 1017.9
6:58 am CDT E 6.9 9.00 Fair -- 68.0 66.4 95% NA NA 30.04 1017.2
5:58 am CDT E 5.8 9.00 Fair -- 68.0 66.2 95% NA NA 30.04 1017.2
4:58 am CDT E 5.8 10.00 Fair -- 67.0 65.8 95% NA NA 30.03 1016.9
3:58 am CDT E 5.8 10.00 Fair -- 68.0 66.2 93% NA NA 30.03 1016.9
2:58 am CDT E 5.8 10.00 Fair -- 69.0 66.4 92% NA NA 30.03 1016.9
1:58 am CDT E 4.6 10.00 Fair -- 69.0 66.6 91% NA NA 30.04 1017.2
12:58 am CDT E 5.8 10.00 Fair -- 71.0 67.3 90% NA NA 30.04 1017.2
11:58 pm CDT E 4.6 10.00 Fair -- 72.0 67.6 87% NA NA 30.05 1017.6
10:58 pm CDT E 4.6 10.00 Partly Cloudy -- 73.0 68.0 85% NA NA 30.06 1017.9
9:58 pm CDT E 5.8 10.00 Fair -- 75.0 68.4 79% NA NA 30.06 1017.9

Regional Weather Observation


Cairns Army Air Field / Ozark, AL (KOZR)

Light Rain
72.0 F

Hanchey AHP / Ozark, AL (KHEY)

A Few Clouds
72.0 F

Troy, Troy Municipal Airport, AL (KTOI)

A Few Clouds
73.0 F

Dothan, Dothan Regional Airport, AL (KDHN)

Mostly Cloudy
75.0 F

Andalusia, Andalusia-Opp Municipal Airport, AL (K79J)

Partly Cloudy
74.0 F

Eufaula Municipal Airport, AL (KEUF)

Mostly Cloudy
71.0 F